Theta_e
319 319 318 317 316 316 315 314 313 312 312 311 310 309 310 311 312 310 311 311 310 309 309 308 308 307 309 307 307 307 307 307 308 307 306 306 305 304 304 302 301 301
317 318 318 317 316 315 314 314 313 312 311 311 310 310 311 310 310 309 308 308 308 308 308 308 308 307 307 307 307 306 305 305 305 308 304 303 303 303 301 301 300 300
316 315 315 314 314 313 313 313 313 312 311 311 311 311 311 310 308 308 307 306 306 306 306 306 307 307 307 306 305 304 304 303 302 303 304 302 302 301 301 301 300 300
315 314 314 314 313 312 313 312 312 311 311 311 310 312 310 308 305 305 305 308 304 304 305 305 305 306 306 305 304 303 303 302 302 302 301 302 302 301 300 301 300 299
313 313 313 313 313 313 312 311 310 310 309 308 307 307 306 303 303 303 303 303 303 303 303 303 304 304 305 304 303 302 302 301 301 301 300 300 301 301 300 300 298 298
313 314 314 313 312 311 310 310 309 309 307 306 304 304 302 302 302 302 302 301 302 302 302 302 302 302 303 303 302 301 301 301 300 300 300 299 299 300 300 299 298 297
311 311 311 311 310 310 310 309 309 308 306 305 304 302 302 301 301 300 301 301 301 302 300 300 300 301 301 301 302 301 301 300 300 299 298 298 299 298 299 298 298 297
310 310 310 310 309 309 309 308 306 304 303 302 301 301 301 300 300 300 300 300 299 299 299 299 300 300 300 301 300 300 299 300 299 298 297 297 297 297 297 298 297 296
310 309 309 309 308 308 307 306 305 303 303 301 300 300 301 300 299 299 299 299 298 298 298 298 298 299 299 300 299 299 298 298 298 297 297 297 296 296 297 297 296 296
309 309 308 308 306 306 305 304 303 302 302 300 300 300 299 299 299 298 298 297 297 296 296 296 297 298 298 299 299 298 298 297 297 297 297 297 297 296 296 296 295 295
308 308 307 307 306 305 303 303 303 302 302 300 299 299 299 298 299 298 297 297 296 295 295 295 295 296 297 298 298 298 298 297 297 296 296 296 296 297 300 296 296 295
307 306 306 305 305 304 303 302 302 301 300 300 299 298 298 298 297 297 298 296 296 295 295 294 294 295 295 296 297 298 297 297 297 297 296 296 296 296 296 296 296 295
306 305 305 305 304 303 303 302 301 301 300 299 299 298 297 297 297 296 297 296 295 295 294 294 294 294 294 294 295 296 296 296 296 295 296 296 295 296 296 295 295 295
305 305 304 304 303 303 302 302 301 300 300 300 299 297 297 296 296 296 296 296 295 295 295 295 294 293 293 293 293 294 296 296 296 296 295 295 295 295 295 295 295 295
304 304 304 304 303 302 302 301 300 300 299 299 298 298 298 296 296 295 295 294 294 294 293 294 294 294 294 292 292 293 294 295 295 295 295 294 294 294 294 294 294 294
303 303 302 302 302 301 301 300 299 299 298 297 296 296 296 296 295 295 294 293 293 293 293 293 293 294 296 295 295 295 293 296 296 295 294 294 294 293 293 294 294 293
302 302 302 301 301 301 300 300 299 298 297 296 295 295 295 295 293 292 292 292 292 292 292 292 292 294 294 292 292 296 295 295 295 294 293 293 293 292 292 293 293 293
302 301 301 301 301 300 300 300 299 298 296 295 295 294 294 293 292 292 292 291 291 291 291 292 292 295 292 293 292 293 298 297 295 295 294 293 292 292 293 292 291 292
301 301 301 301 300 300 301 300 299 298 296 295 294 295 293 292 292 291 291 291 291 291 291 291 291 293 292 293 293 293 295 297 295 294 294 293 292 292 292 290 290 292
301 301 300 300 300 300 300 300 299 297 297 296 296 295 293 293 292 291 291 292 292 291 291 292 292 293 293 294 294 294 295 296 294 294 294 293 293 292 292 291 290 290
300 300 300 300 300 300 299 299 298 298 297 296 294 293 292 291 291 291 291 292 291 292 292 292 292 292 292 293 294 294 294 295 294 295 294 293 292 292 291 292 290 291
300 300 300 299 299 299 298 298 298 297 296 296 295 293 293 292 291 291 291 291 292 292 291 290 290 291 292 292 293 293 294 296 294 293 292 293 292 292 291 290 291 292
300 300 299 299 298 298 297 297 297 296 296 296 295 294 293 291 291 291 292 292 291 290 289 289 289 291 291 292 292 292 293 292 292 293 291 290 290 291 292 292 292 294
300 300 299 299 298 297 297 296 296 296 296 297 295 294 293 293 292 291 290 291 290 289 290 290 288 291 291 292 292 292 293 291 290 291 289 289 290 290 290 290 292 299
300 300 299 298 297 296 297 296 296 296 296 295 294 294 293 293 294 291 290 289 290 292 298 291 289 292 292 291 291 292 293 290 290 290 290 288 289 291 290 290 290 294
300 299 298 297 297 296 297 296 296 295 294 294 293 293 293 292 293 292 291 290 290 290 292 289 290 289 290 291 291 292 293 292 290 289 289 288 288 291 290 289 289 289
Wind_Speed
7 6 7 7 7 7 8 8 7 8 6 7 7 6 6 4 4 5 5 6 6 7 7 6 6 5 5 5 5 6 7 8 8 7 8 9 9 10 9 9 9 8
7 7 7 7 7 7 7 8 8 8 8 7 6 6 5 6 5 6 6 7 7 7 6 5 4 5 5 6 7 9 9 9 9 7 9 10 8 9 9 10 9 8
7 8 8 8 8 9 9 8 8 7 8 6 5 5 6 6 6 6 7 7 7 7 7 6 6 6 7 8 9 9 9 9 8 7 8 8 7 8 8 8 7 7
7 7 8 8 8 8 8 9 8 7 7 6 5 5 6 6 7 8 7 8 7 7 7 7 7 7 8 8 9 8 8 7 6 7 8 7 7 8 8 7 7 7
8 7 6 6 6 7 8 10 9 7 7 6 7 7 7 8 8 8 7 7 7 7 8 8 8 8 8 8 8 8 7 7 7 7 8 8 7 7 7 6 6 8
6 6 6 7 7 9 9 9 8 8 8 8 8 8 8 8 8 7 7 7 7 8 8 8 8 7 7 7 8 7 7 7 7 7 8 8 7 6 6 7 7 8
7 7 8 8 9 9 10 9 8 8 8 7 8 8 8 9 8 7 7 7 8 8 8 8 8 8 6 7 8 8 7 7 7 7 8 7 7 8 7 7 8 8
8 7 8 8 9 8 9 9 9 8 8 10 10 8 9 8 8 6 7 8 8 8 8 8 8 8 7 7 8 8 6 5 7 7 8 8 7 8 7 7 7 8
8 8 9 9 9 8 9 9 9 9 9 10 9 8 8 8 7 7 7 8 8 8 8 8 8 7 6 7 6 7 7 6 6 7 8 8 8 7 7 6 7 8
9 8 9 9 9 8 9 9 9 9 9 10 9 8 9 7 7 7 7 8 8 8 8 7 7 7 7 6 6 6 7 7 6 7 7 7 6 6 6 6 7 7
8 8 9 9 8 8 9 9 9 9 9 10 9 9 8 8 7 6 7 8 8 7 7 7 6 6 7 6 5 5 6 6 6 6 6 6 6 5 6 5 6 6
8 8 8 8 8 9 9 9 10 10 10 9 10 10 8 7 7 6 7 8 7 7 7 6 6 6 6 5 5 5 6 6 5 5 5 6 5 5 4 4 4 4
8 8 8 8 8 8 8 9 10 10 10 10 9 9 9 8 7 8 6 7 7 7 7 6 6 6 6 6 5 5 5 6 6 5 5 5 4 5 4 4 3 2
7 7 7 8 7 8 8 9 9 10 9 9 8 9 8 8 8 8 6 7 7 7 5 5 6 6 5 5 4 4 4 4 4 5 5 5 5 4 3 3 3 3
7 6 7 7 8 8 9 9 10 10 9 9 8 8 7 7 6 7 8 8 7 7 6 6 7 5 4 3 3 4 4 4 4 5 6 5 4 4 3 3 3 3
7 7 8 8 8 9 9 10 10 10 9 9 8 8 7 7 7 7 7 7 7 7 7 7 5 3 5 6 4 2 3 4 4 4 5 4 4 4 4 4 4 4
8 8 8 9 8 9 10 11 10 9 9 9 8 7 7 6 7 8 7 6 7 7 7 6 5 3 6 3 2 4 4 4 5 4 4 4 3 3 3 4 4 4
8 9 9 9 9 10 10 10 10 10 10 9 8 8 6 6 8 7 6 6 6 7 7 5 4 5 3 1 5 7 7 5 4 4 3 3 2 2 1 3 4 5
8 9 9 9 9 9 9 9 10 10 10 9 8 6 6 7 6 7 6 6 7 7 6 4 3 6 6 7 7 8 9 7 4 4 4 3 2 1 1 2 4 5
8 9 9 9 9 9 9 10 10 10 8 7 7 6 7 6 6 7 6 6 6 7 5 5 5 7 8 11 11 11 11 8 3 3 3 3 2 1 0 1 3 4
9 9 9 9 9 9 9 10 10 9 9 7 7 7 7 7 7 6 5 5 5 6 7 6 4 7 10 13 14 14 13 8 3 3 1 1 1 2 1 2 4 4
9 9 9 9 9 9 9 9 9 9 9 7 7 6 5 5 5 6 6 6 5 7 8 6 4 8 11 12 13 13 11 6 4 3 1 1 3 3 3 3 4 4
9 10 10 9 9 9 9 9 9 9 8 7 8 7 7 6 5 5 5 6 6 6 8 5 5 7 10 11 10 11 9 6 4 4 3 2 3 4 4 4 4 4
10 10 10 10 9 10 9 8 7 7 8 8 9 7 7 6 5 5 4 5 6 5 6 7 5 6 10 10 10 10 8 6 4 5 3 3 3 4 4 4 5 10
10 10 10 10 10 9 9 9 9 9 7 7 7 7 7 6 5 6 4 4 5 5 8 7 5 5 9 9 9 8 6 4 5 5 5 4 4 5 4 4 6 6
9 10 9 10 10 9 8 8 7 8 8 8 7 7 7 6 5 6 6 4 4 5 5 5 6 5 5 8 8 8 7 4 4 6 3 2 3 3 6 6 5 6
Wind_Direction
114 117 115 112 113 116 118 114 108 104 101 96 96 100 98 102 83 70 71 72 74 74 73 74 71 67 59 51 46 42 41 45 50 49 53 56 56 57 55 51 48 45
109 109 109 109 108 108 109 109 109 107 103 98 103 103 89 78 73 86 79 73 67 64 59 55 55 59 53 45 42 58 60 60 59 54 58 59 63 62 58 54 50 43
111 112 116 118 120 120 116 110 108 107 106 106 103 89 85 86 85 78 77 72 67 62 59 54 47 43 47 55 62 64 65 64 63 59 64 62 62 63 58 55 48 43
106 111 116 118 119 118 115 106 99 97 97 95 86 87 87 86 81 74 68 67 67 62 57 53 50 51 56 62 69 67 68 68 70 71 67 62 60 60 55 51 47 39
118 115 114 111 108 107 105 103 102 97 89 92 92 88 84 81 78 73 72 66 65 60 54 51 48 50 59 65 70 73 69 68 61 66 67 63 56 59 53 49 45 42
104 105 101 104 108 109 105 104 101 93 95 91 91 87 85 82 78 78 74 72 63 62 59 53 51 48 55 69 69 67 68 67 61 66 66 63 58 52 53 45 43 42
109 101 103 107 106 106 107 102 92 91 91 96 86 83 86 82 82 80 76 73 68 62 60 57 55 54 51 65 71 73 71 72 69 67 68 63 59 51 45 46 42 43
108 111 113 110 107 104 100 93 95 96 98 88 87 86 87 87 84 80 77 73 72 67 63 61 60 59 55 63 77 77 74 73 72 69 68 63 56 56 48 43 43 45
116 118 117 111 105 100 96 99 100 100 95 93 92 89 84 86 86 82 79 79 74 68 66 61 60 62 57 68 77 83 81 75 70 70 67 63 61 58 54 45 46 47
117 119 113 110 104 102 104 105 104 99 98 95 96 94 90 83 80 80 80 78 77 70 66 65 62 62 65 65 73 82 82 76 69 66 64 63 67 67 58 52 49 46
116 114 113 110 108 108 110 108 104 103 100 101 98 93 92 92 82 76 80 75 75 74 71 65 63 65 68 63 64 75 80 78 72 69 67 67 66 66 64 61 51 50
116 114 114 115 116 116 115 112 109 106 102 98 99 99 95 91 92 83 83 83 79 78 76 73 67 67 67 65 64 72 74 70 71 71 70 69 66 62 60 51 59 50
119 119 121 122 121 121 116 111 109 107 105 104 103 103 103 99 93 91 81 84 82 78 73 74 72 66 62 57 57 62 79 76 72 71 71 70 67 61 50 44 41 34
116 114 115 116 116 114 110 108 106 105 104 104 102 101 99 99 98 96 91 83 79 78 76 76 73 63 54 50 51 54 80 84 79 79 76 68 63 50 38 31 17 358
112 109 110 112 111 109 107 106 106 105 103 103 101 101 99 99 99 97 94 86 77 76 73 66 65 55 50 41 35 46 63 89 80 80 79 77 65 47 28 16 360 350
115 115 116 115 112 110 112 111 109 108 105 101 100 99 100 99 94 89 86 88 85 74 68 63 57 48 27 19 16 57 79 99 90 80 84 86 80 54 22 3 350 346
120 122 120 115 114 112 114 115 115 111 106 103 102 101 99 98 92 87 84 81 81 78 69 63 52 33 10 359 60 103 117 116 112 99 87 89 83 74 38 11 356 347
127 124 119 119 117 117 117 117 116 111 110 109 107 101 97 94 88 89 90 86 82 76 69 60 51 19 3 118 98 103 124 125 124 118 112 105 106 95 33 10 4 359
128 125 124 121 120 120 119 119 117 115 116 113 109 108 99 92 95 91 87 86 84 82 73 60 57 22 39 60 74 106 128 130 130 129 122 128 136 151 58 12 5 3
130 128 125 125 124 122 121 121 120 119 117 113 110 102 98 96 90 90 90 84 85 86 81 61 53 22 58 72 81 93 110 111 126 130 134 162 188 208 256 319 336 354
133 129 128 129 126 124 120 119 120 119 117 118 115 114 110 108 106 98 92 92 90 89 79 62 40 33 67 72 78 85 89 97 91 82 81 214 243 245 250 281 321 328
136 134 133 131 128 125 121 121 122 125 124 122 112 107 103 100 92 98 102 99 94 90 84 69 43 45 68 73 80 85 86 83 83 77 53 329 302 288 291 295 312 326
139 138 137 135 132 128 127 126 124 121 119 121 118 122 120 115 118 112 112 106 97 91 93 83 60 46 64 71 79 94 92 84 84 73 43 6 323 309 314 319 328 337
145 143 142 140 136 136 134 129 122 120 125 129 129 132 126 131 127 113 106 109 107 102 103 95 77 55 65 65 68 73 87 93 90 87 56 23 343 324 313 319 333 347
146 143 142 140 137 139 138 136 135 134 133 125 127 126 132 135 131 122 118 107 110 110 95 91 80 58 59 63 65 70 84 87 90 81 57 13 353 339 332 341 338 337
143 142 142 142 141 139 138 137 133 128 132 130 130 130 134 136 133 133 129 130 117 98 94 93 84 59 55 68 71 69 82 91 79 76 54 3 339 347 346 339 344 343